Stündliche Wetter Holyoke

Heute, 21 Juni, Montag

Zeit Temperatur Niederschläge Wind Luftdruck Luftfeuchtigkeit
00:00 +21°C° 0 mm 1 m/S 751 mmHg 96%
01:00 +21°C° 0 mm 1 m/S 751 mmHg 96%
02:00 +21°C° 0.1 mm 1 m/S 751 mmHg 97%
03:00 +21°C° 0.1 mm 1 m/S 751 mmHg 97%
04:00 +21°C° 0.1 mm 1 m/S 751 mmHg 98%
05:00 +21°C° 0.3 mm 2 m/S 750 mmHg 96%
06:00 +23°C° 0.3 mm 2 m/S 750 mmHg 93%
07:00 +25°C° 0 mm 2 m/S 750 mmHg 92%
08:00 +27°C° 0 mm 3 m/S 750 mmHg 81%
09:00 +29°C° 0 mm 3 m/S 750 mmHg 70%
10:00 +32°C° 0 mm 4 m/S 750 mmHg 59%
11:00 +33°C° 0 mm 4 m/S 749 mmHg 55%
12:00 +34°C° 0 mm 5 m/S 748 mmHg 51%
13:00 +35°C° 0 mm 5 m/S 747 mmHg 48%
14:00 +35°C° 0 mm 5 m/S 747 mmHg 50%
15:00 +34°C° 0 mm 5 m/S 747 mmHg 52%
16:00 +34°C° 0 mm 5 m/S 746 mmHg 55%
17:00 +32°C° 0 mm 5 m/S 746 mmHg 63%
18:00 +29°C° 0 mm 5 m/S 746 mmHg 70%
19:00 +27°C° 0 mm 5 m/S 746 mmHg 78%
20:00 +26°C° 0.5 mm 4 m/S 746 mmHg 84%
21:00 +25°C° 0.5 mm 3 m/S 747 mmHg 91%
22:00 +23°C° 0.5 mm 2 m/S 747 mmHg 97%
23:00 +23°C° 0 mm 2 m/S 747 mmHg 98%

Morgen, 22 Juni, Dienstag

Zeit Temperatur Niederschläge Wind Luftdruck Luftfeuchtigkeit
00:00 +23°C° 0 mm 2 m/S 747 mmHg 98%
01:00 +21°C° 0 mm 2 m/S 747 mmHg 98%
02:00 +21°C° 0.3 mm 2 m/S 747 mmHg 98%
03:00 +21°C° 0.3 mm 2 m/S 747 mmHg 97%
04:00 +21°C° 0.3 mm 2 m/S 747 mmHg 97%
05:00 +20°C° 0.1 mm 2 m/S 748 mmHg 93%
06:00 +20°C° 0.1 mm 2 m/S 748 mmHg 89%
07:00 +20°C° 0.1 mm 3 m/S 749 mmHg 84%
08:00 +20°C° 0 mm 3 m/S 749 mmHg 78%
09:00 +21°C° 0 mm 4 m/S 750 mmHg 71%
10:00 +21°C° 0 mm 4 m/S 750 mmHg 65%
11:00 +20°C° 0.1 mm 4 m/S 750 mmHg 69%
12:00 +19°C° 0.1 mm 3 m/S 751 mmHg 73%
13:00 +18°C° 0.1 mm 3 m/S 751 mmHg 78%
14:00 +18°C° 0.1 mm 3 m/S 751 mmHg 81%
15:00 +17°C° 0.1 mm 2 m/S 751 mmHg 84%
16:00 +16°C° 0.1 mm 2 m/S 751 mmHg 87%
17:00 +16°C° 0 mm 2 m/S 752 mmHg 84%
18:00 +16°C° 0 mm 3 m/S 752 mmHg 81%
19:00 +16°C° 0 mm 3 m/S 753 mmHg 78%
20:00 +16°C° 0 mm 3 m/S 754 mmHg 74%
21:00 +14°C° 0 mm 4 m/S 754 mmHg 70%
22:00 +13°C° 0 mm 4 m/S 755 mmHg 66%
23:00 +12°C° 0 mm 3 m/S 756 mmHg 67%

übermorgen, 23 Juni, Mittwoch

Zeit Temperatur Niederschläge Wind Luftdruck Luftfeuchtigkeit
00:00 +11°C° 0 mm 3 m/S 756 mmHg 68%
01:00 +12°C° 0 mm 2 m/S 757 mmHg 69%
02:00 +10°C° 0 mm 2 m/S 757 mmHg 72%
03:00 +10°C° 0 mm 1 m/S 758 mmHg 75%
04:00 +9°C° 0 mm 1 m/S 758 mmHg 79%
05:00 +10°C° 0 mm 2 m/S 759 mmHg 70%
06:00 +13°C° 0 mm 2 m/S 759 mmHg 62%
07:00 +14°C° 0 mm 3 m/S 760 mmHg 54%
08:00 +17°C° 0 mm 3 m/S 760 mmHg 47%
09:00 +19°C° 0 mm 3 m/S 761 mmHg 40%
10:00 +21°C° 0 mm 3 m/S 761 mmHg 33%
11:00 +22°C° 0 mm 3 m/S 761 mmHg 31%
12:00 +24°C° 0 mm 3 m/S 761 mmHg 29%
13:00 +25°C° 0 mm 3 m/S 761 mmHg 27%
14:00 +25°C° 0 mm 3 m/S 761 mmHg 28%
15:00 +25°C° 0 mm 3 m/S 761 mmHg 29%
16:00 +25°C° 0 mm 3 m/S 761 mmHg 30%
17:00 +23°C° 0 mm 2 m/S 762 mmHg 41%
18:00 +20°C° 0 mm 2 m/S 762 mmHg 52%
19:00 +19°C° 0 mm 1 m/S 763 mmHg 63%
20:00 +16°C° 0 mm 1 m/S 763 mmHg 64%
21:00 +15°C° 0 mm 1 m/S 764 mmHg 65%
22:00 +13°C° 0 mm 0 m/S 765 mmHg 66%
23:00 +12°C° 0 mm 0 m/S 765 mmHg 68%

24 Juni, Donnerstag

Zeit Temperatur Niederschläge Wind Luftdruck Luftfeuchtigkeit
00:00 +12°C° 0 mm 0 m/S 765 mmHg 71%
01:00 +11°C° 0 mm 0 m/S 766 mmHg 73%
02:00 +11°C° 0 mm 0 m/S 766 mmHg 74%
03:00 +11°C° 0 mm 0 m/S 766 mmHg 75%
04:00 +10°C° 0 mm 0 m/S 766 mmHg 76%
05:00 +13°C° 0 mm 0 m/S 767 mmHg 71%
06:00 +16°C° 0 mm 1 m/S 767 mmHg 66%
07:00 +19°C° 0 mm 1 m/S 768 mmHg 60%
08:00 +21°C° 0 mm 1 m/S 767 mmHg 53%
09:00 +24°C° 0 mm 2 m/S 767 mmHg 46%
10:00 +26°C° 0 mm 2 m/S 767 mmHg 39%
11:00 +27°C° 0 mm 2 m/S 767 mmHg 35%
12:00 +28°C° 0 mm 3 m/S 766 mmHg 31%
13:00 +29°C° 0 mm 3 m/S 766 mmHg 27%
14:00 +29°C° 0 mm 3 m/S 766 mmHg 28%
15:00 +28°C° 0 mm 4 m/S 766 mmHg 30%
16:00 +28°C° 0 mm 4 m/S 766 mmHg 31%
17:00 +25°C° 0 mm 4 m/S 766 mmHg 39%
18:00 +22°C° 0 mm 3 m/S 766 mmHg 47%
19:00 +20°C° 0 mm 3 m/S 766 mmHg 56%
20:00 +17°C° 0 mm 3 m/S 767 mmHg 65%
21:00 +15°C° 0 mm 2 m/S 767 mmHg 74%
22:00 +13°C° 0 mm 1 m/S 767 mmHg 83%
23:00 +12°C° 0 mm 1 m/S 767 mmHg 86%

25 Juni, Freitag

Zeit Temperatur Niederschläge Wind Luftdruck Luftfeuchtigkeit
00:00 +12°C° 0 mm 1 m/S 767 mmHg 90%
01:00 +10°C° 0 mm 0 m/S 767 mmHg 93%
02:00 +10°C° 0 mm 0 m/S 767 mmHg 93%
03:00 +9°C° 0 mm 0 m/S 767 mmHg 94%
04:00 +9°C° 0 mm 0 m/S 767 mmHg 94%
05:00 +11°C° 0 mm 0 m/S 767 mmHg 86%
06:00 +14°C° 0 mm 0 m/S 767 mmHg 78%
07:00 +16°C° 0 mm 0 m/S 767 mmHg 69%
08:00 +20°C° 0 mm 1 m/S 766 mmHg 61%
09:00 +23°C° 0 mm 2 m/S 766 mmHg 53%
10:00 +25°C° 0 mm 2 m/S 766 mmHg 44%
11:00 +27°C° 0 mm 2 m/S 765 mmHg 41%
12:00 +28°C° 0 mm 3 m/S 765 mmHg 38%
13:00 +30°C° 0 mm 3 m/S 764 mmHg 34%
14:00 +30°C° 0 mm 3 m/S 763 mmHg 37%
15:00 +29°C° 0 mm 3 m/S 763 mmHg 41%
16:00 +29°C° 0 mm 4 m/S 763 mmHg 44%
17:00 +27°C° 0 mm 4 m/S 763 mmHg 53%
18:00 +26°C° 0 mm 3 m/S 763 mmHg 61%
19:00 +24°C° 0 mm 3 m/S 763 mmHg 70%
20:00 +21°C° 0 mm 3 m/S 763 mmHg 78%
21:00 +19°C° 0 mm 2 m/S 763 mmHg 86%
22:00 +17°C° 0 mm 2 m/S 763 mmHg 94%
23:00 +19°C° 0 mm 1 m/S 763 mmHg 95%

26 Juni, Samstag

Zeit Temperatur Niederschläge Wind Luftdruck Luftfeuchtigkeit
00:00 +19°C° 0 mm 1 m/S 762 mmHg 96%
01:00 +19°C° 0 mm 1 m/S 762 mmHg 97%
02:00 +18°C° 0 mm 2 m/S 762 mmHg 97%
03:00 +19°C° 0 mm 2 m/S 762 mmHg 97%
04:00 +20°C° 0 mm 2 m/S 761 mmHg 96%
05:00 +20°C° 0 mm 2 m/S 761 mmHg 93%
06:00 +21°C° 0 mm 3 m/S 761 mmHg 90%
07:00 +22°C° 0 mm 3 m/S 761 mmHg 87%
08:00 +25°C° 0 mm 4 m/S 761 mmHg 76%
09:00 +27°C° 0 mm 5 m/S 760 mmHg 66%
10:00 +29°C° 0 mm 5 m/S 760 mmHg 55%
11:00 +30°C° 0 mm 5 m/S 759 mmHg 55%
12:00 +30°C° 0 mm 5 m/S 759 mmHg 54%
13:00 +32°C° 0 mm 5 m/S 758 mmHg 53%
14:00 +30°C° 0 mm 5 m/S 758 mmHg 55%
15:00 +30°C° 0 mm 5 m/S 758 mmHg 58%
16:00 +29°C° 0 mm 5 m/S 758 mmHg 60%
17:00 +28°C° 0 mm 5 m/S 758 mmHg 65%
18:00 +27°C° 0 mm 5 m/S 758 mmHg 70%
19:00 +26°C° 0 mm 5 m/S 758 mmHg 74%
20:00 +25°C° 0 mm 4 m/S 758 mmHg 78%
21:00 +23°C° 0 mm 4 m/S 759 mmHg 82%
22:00 +23°C° 0 mm 4 m/S 759 mmHg 86%
23:00 +22°C° 0 mm 3 m/S 759 mmHg 88%
Mehr zeigen

Wir brauchen deine Erlaubnis

Meteoprog und unser Service Anbieter werden persönliche Daten aufbewahren, so wie Cookies, Geräte Bezeichnung oder ähnliche Technologien von deinem Gerät und Prozess, so wie Persönliche Daten Inhalte und Werbungen, genauso wie social Media und den Verkehr zu analysieren.

  • Aufbewahrung und/oder Zugang zu deiner Geräte Informationen.

    Cookies, Geräte Bezeichnung oder andere Informationen, können aufbewahrt oder Zugang zu deinem Gerät erhalten, für den Grund, der oben angegeben wird.

  • Personalisierte Werbung und Inhalte, Messungen, Einblick in das Publikum und Produkt Entwicklung.

    Werbungen und Inhalte können personalisiert werden, basierend auf ein Profil. Mehr Daten können besser personalisierte Werbungen und Inhalte hinzufügen. Werbung und Inhalte können gezeigt und gemessen werden. Einblicke über das Publikum, welche die Werbung gesehen haben und den Inhalt, können abgeleitet werden. So wie Daten können genutzt werden, um es zu verbessern oder die Benutzer Erfahrung zu verbessern das System und die Software.

Wenn du “Ich stimme zu” klickst, erlaubst du uns, die Cookies zu benutzen die Geräte Bezeichnung, den Web oder ähnliche Technologien zu benutzen. Deine Settings, können in deinem Gerät bei deinem Browser geändert werden.

Für den bestimmten Zweck, berechtigten Interessen beruhen darauf, mehr als auf den Inhalt. Du kannst mehr darüber in unseren Privaten und Cookie Politik lesen.